Location: Beuerbach
(48.1459°N, 10.9174°E)
Time: 03:40:28
(UTC+00:00)

Cosmos 1709 Rocket - Pass Details

Date: 23 May 2024
Orbit: 948 x 1000 km, 82.9° (Epoch: 13 June)

Event Time Altitude Azimuth Distance (km) Brightness Sun altitude
Exits shadow 01:49:42 17° 209° (SSW) 2,281 5.3 -12.8°
Maximum altitude 01:54:35 57° 284° (WNW) 1,167 4.3 -12.3°
Drops below altitude 10° 02:00:52 10° 2° (N) 2,780 7.2 -11.6°
Sets 02:03:29 0° 7° (N) 3,736 8.1 -11.4°
